Location: Santa Barbara
(34.4500°N, 119.7700°W)
Time: 16:13:26
(UTC-08:00)

Envisat - Pass Details

Date: 23 October 2019
Orbit: 764 x 766 km, 98.1° (Epoch: 22 November)

Event Time Altitude Azimuth Distance (km) Brightness Sun altitude
Rises 18:36:07 0° 149° (SSE) 3,218 6.0 -5.1°
Reaches altitude 10° 18:38:30 10° 143° (SE) 2,296 5.2 -5.5°
Maximum altitude 18:43:16 43° 72° (ENE) 1,065 3.3 -6.5°
Drops below altitude 10° 18:48:03 10° 2° (N) 2,308 5.4 -7.5°
Sets 18:50:27 0° 356° (N) 3,238 6.2 -8.0°
